This demonstration page uses our WeatherBlox Daily Observations layout. Learn more.

Left ArrowRight Arrow

38.88101, -77.10428

Hourly Observations for December 9, 2015

Temp ( °F °C ) Dew Point ( °F °C ) Humidity (%) Winds ( mph kmh ) Pressure ( in mb ) Visibility ( mi km ) Precip ( " mm )
12:52 am 00:52 Partly Cloudy 42 5.6 37 2.8 82 82 N N/A 30.13 1020 9 14 N/A
1:52 am 01:52 Mostly Cloudy 42 5.6 37 2.8 82 82 E 3 6 30.12 1020 8 13 N/A
2:52 am 02:52 Mostly Cloudy 41 5 37 2.8 86 86 N N/A 30.12 1020 8 13 N/A
3:52 am 03:52 Mostly Cloudy 40 4.4 37 2.8 89 89 ENE 6 9 30.11 1020 7 11 N/A
4:52 am 04:52 Mostly Cloudy with Mist and Fog 40 4.4 37 2.8 89 89 NE 5 7 30.11 1020 6 10 N/A
5:52 am 05:52 Partly Cloudy with Mist and Fog 39 3.9 37 2.8 93 93 ENE 7 11 30.11 1020 6 10 N/A
6:30 am 06:30 Mostly Cloudy with Mist and Fog 39 4 37 3 93 93 ENE 5 7 30.12 1020 6 10 N/A
6:52 am 06:52 Cloudy with Mist and Fog 40 4.4 37 2.8 89 89 NE 5 7 30.12 1020 6 10 N/A
7:08 am 07:08 Cloudy with Mist and Fog 39 4 37 3 93 93 ENE 5 7 30.12 1020 6 10 N/A
7:52 am 07:52 Cloudy with Mist and Fog 41 5 38 3.3 89 89 NE 5 7 30.12 1020 5 8 N/A
8:04 am 08:04 Cloudy with Mist and Fog 43 6 37 3 81 81 E 3 6 30.12 1020 5 8 N/A
8:52 am 08:52 Cloudy with Mist and Fog 43 6.1 40 4.4 89 89 S 6 9 30.13 1020 4 6 N/A
9:16 am 09:16 Cloudy with Mist and Fog 43 6 41 5 93 93 SSW 8 13 30.12 1020 3 4 N/A
9:23 am 09:23 Cloudy with Mist and Fog 43 6.1 41 5 93 93 S 7 11 30.12 1020 3 4 N/A
9:52 am 09:52 Cloudy with Mist and Fog 43 6.1 41 5 93 93 S 7 11 30.13 1020 2 3 N/A
10:07 am 10:07 Cloudy with Mist and Fog 43 6.1 41 5 93 93 S 8 13 30.12 1020 2 3 N/A
10:23 am 10:23 Cloudy with Mist and Fog 43 6.1 42 5.6 97 97 S 9 15 30.12 1020 1 2 N/A
10:28 am 10:28 Cloudy with Fog 43 6 43 6 100 100 S 8 13 30.12 1020 1 1 N/A
10:52 am 10:52 Cloudy with Mist and Fog 43 6.1 42 5.6 97 97 S 7 11 30.11 1020 1 1 N/A
11:00 am 11:00 Cloudy with Mist and Fog 45 7 43 6 93 93 S 6 9 30.12 1020 1 2 N/A
11:19 am 11:19 Cloudy with Mist and Fog 44 6.7 43 6.1 96 96 S 8 13 30.09 1019 2 2 N/A
11:40 am 11:40 Cloudy with Mist and Fog 45 7 43 6 93 93 S 8 13 30.09 1019 3 4 N/A
11:52 am 11:52 Cloudy with Mist and Fog 45 7.2 43 6.1 93 93 S 9 15 30.08 1019 3 5 N/A
12:01 pm 12:01 Cloudy with Mist and Fog 45 7.2 43 6.1 93 93 S 9 15 30.09 1019 4 6 N/A
12:07 pm 12:07 Cloudy with Mist and Fog 45 7.2 43 6.1 93 93 S 8 13 30.09 1019 3 4 N/A
12:20 pm 12:20 Cloudy with Mist and Fog 46 8 45 7 93 93 SSW 8 13 30.06 1018 2 3 N/A
12:52 pm 12:52 Cloudy with Mist and Fog 46 7.8 44 6.7 93 93 S 8 13 30.06 1018 2 3 N/A
1:13 pm 13:13 Cloudy with Mist and Fog 46 7.8 44 6.7 93 93 S 8 13 30.03 1017 3 5 N/A
1:52 pm 13:52 Cloudy with Mist and Fog 48 8.9 45 7.2 89 89 S 7 11 30.02 1017 6 10 N/A
2:03 pm 14:03 Cloudy 48 9 45 7 87 87 S 10 17 30.03 1017 8 13 N/A
2:34 pm 14:34 Cloudy 48 9 45 7 87 87 S 10 17 30.00 1016 9 14 N/A
2:52 pm 14:52 Cloudy 49 9.4 45 7.2 86 86 S 9 15 30.01 1016 9 14 N/A
3:23 pm 15:23 Mostly Cloudy 49 9.4 45 7.2 86 86 S 8 13 30.00 1016 9 14 N/A
3:31 pm 15:31 Mostly Cloudy 49 9.4 44 6.7 83 83 SSW 9 15 30.00 1016 9 14 N/A
3:52 pm 15:52 Mostly Cloudy 49 9.4 44 6.7 83 83 SSW 7 11 30.00 1016 8 13 N/A
3:59 pm 15:59 Mostly Cloudy 49 9.4 44 6.7 83 83 SW 8 13 30.00 1016 8 13 N/A
4:52 pm 16:52 Mostly Cloudy 48 8.9 43 6.1 83 83 SW 3 6 30.00 1016 8 13 N/A
5:52 pm 17:52 Mostly Cloudy 47 8.3 43 6.1 86 86 N N/A 29.99 1016 8 13 N/A
6:52 pm 18:52 Mostly Cloudy 46 7.8 44 6.7 93 93 N N/A 29.98 1015 7 11 N/A
7:29 pm 19:29 Cloudy 47 8.3 44 6.7 90 90 S 3 6 30.00 1016 8 13 N/A
7:52 pm 19:52 Mostly Cloudy with Mist and Fog 45 7.2 43 6.1 93 93 SSW 8 13 29.98 1015 5 8 N/A
9:52 pm 21:52 Mostly Clear 45 7.2 43 6.1 93 93 W 5 7 29.97 1015 7 11 N/A
10:52 pm 22:52 Mostly Cloudy with Mist and Fog 44 6.7 43 6.1 96 96 S 3 6 29.97 1015 5 8 N/A
11:16 pm 23:16 Cloudy 46 8 45 7 93 93 N N/A 29.97 1015 7 11 N/A
11:52 pm 23:52 Cloudy 46 7.8 44 6.7 93 93 N N/A 29.97 1015 7 11 N/A

Powered by AerisWeather